When you browse on this site, cookies collect data to enhance your experience and personalize the content and advertising you see.
Visit our Privacy Policy to learn more. By continuing to use the site, you agree to this use of cookies and data.
  • In United Kingdom
  • List of Countries
  • For 7 days
  • Water Temperature
  • Satellite Maps
  • Weather Map
  • Weather Widgets
  • user-avatar
    Login

    Hourly Weather Malanville

    Today, 19 July, Friday

    Time Temperature Precipitation Wind Pressure Humidity
    00:00 +28°C° 0.4 mm 3 mps 743 mmHg 77%
    01:00 +27°C° 0.6 mm 3 mps 743 mmHg 79%
    02:00 +27°C° 0.6 mm 4 mps 743 mmHg 82%
    03:00 +26°C° 0.6 mm 4 mps 743 mmHg 85%
    04:00 +26°C° 0.9 mm 3 mps 744 mmHg 85%
    05:00 +26°C° 0.9 mm 3 mps 744 mmHg 86%
    06:00 +26°C° 0.9 mm 3 mps 745 mmHg 87%
    07:00 +26°C° 0.1 mm 4 mps 745 mmHg 84%
    08:00 +27°C° 0.1 mm 6 mps 745 mmHg 80%
    09:00 +28°C° 0.1 mm 7 mps 744 mmHg 77%
    10:00 +30°C° 0 mm 6 mps 744 mmHg 68%
    11:00 +33°C° 0 mm 5 mps 744 mmHg 60%
    12:00 +35°C° 0 mm 4 mps 745 mmHg 52%
    13:00 +35°C° 0 mm 5 mps 744 mmHg 52%
    14:00 +35°C° 0 mm 5 mps 743 mmHg 52%
    15:00 +35°C° 0 mm 5 mps 742 mmHg 51%
    16:00 +34°C° 0 mm 4 mps 742 mmHg 55%
    17:00 +33°C° 0 mm 4 mps 743 mmHg 60%
    18:00 +31°C° 0 mm 3 mps 743 mmHg 64%
    19:00 +30°C° 0.2 mm 4 mps 743 mmHg 68%
    20:00 +29°C° 0.2 mm 4 mps 743 mmHg 72%
    21:00 +28°C° 0.2 mm 4 mps 743 mmHg 77%
    22:00 +27°C° 0.2 mm 4 mps 743 mmHg 78%
    23:00 +27°C° 0.2 mm 3 mps 744 mmHg 79%

    Tomorrow, 20 July, Saturday

    Time Temperature Precipitation Wind Pressure Humidity
    00:00 +27°C° 0.2 mm 3 mps 744 mmHg 81%
    01:00 +27°C° 0.2 mm 3 mps 744 mmHg 82%
    02:00 +26°C° 0.2 mm 3 mps 744 mmHg 83%
    03:00 +26°C° 0.2 mm 4 mps 743 mmHg 84%
    04:00 +26°C° 0.2 mm 3 mps 744 mmHg 84%
    05:00 +26°C° 0.2 mm 2 mps 744 mmHg 84%
    06:00 +26°C° 0.2 mm 2 mps 745 mmHg 85%
    07:00 +27°C° 0 mm 3 mps 745 mmHg 80%
    08:00 +28°C° 0 mm 4 mps 745 mmHg 74%
    09:00 +30°C° 0 mm 4 mps 746 mmHg 69%
    10:00 +32°C° 0 mm 5 mps 745 mmHg 64%
    11:00 +33°C° 0 mm 6 mps 745 mmHg 59%
    12:00 +34°C° 0 mm 7 mps 745 mmHg 54%
    13:00 +34°C° 0 mm 6 mps 744 mmHg 55%
    14:00 +33°C° 0 mm 5 mps 743 mmHg 56%
    15:00 +33°C° 0 mm 5 mps 743 mmHg 56%
    16:00 +32°C° 0 mm 4 mps 743 mmHg 59%
    17:00 +32°C° 0 mm 4 mps 743 mmHg 62%
    18:00 +30°C° 0 mm 3 mps 743 mmHg 65%
    19:00 +29°C° 0 mm 3 mps 744 mmHg 67%
    20:00 +29°C° 0 mm 2 mps 744 mmHg 70%
    21:00 +28°C° 0 mm 2 mps 745 mmHg 72%
    22:00 +27°C° 0 mm 2 mps 745 mmHg 75%
    23:00 +27°C° 0 mm 2 mps 745 mmHg 77%

    Day after tomorrow, 21 July, Sunday

    Time Temperature Precipitation Wind Pressure Humidity
    00:00 +27°C° 0 mm 3 mps 744 mmHg 79%
    01:00 +26°C° 0 mm 3 mps 744 mmHg 80%
    02:00 +26°C° 0 mm 3 mps 744 mmHg 80%
    03:00 +26°C° 0 mm 3 mps 744 mmHg 81%
    04:00 +26°C° 0.1 mm 2 mps 744 mmHg 81%
    05:00 +26°C° 0.1 mm 2 mps 745 mmHg 82%
    06:00 +26°C° 0.1 mm 2 mps 745 mmHg 82%
    07:00 +26°C° 0.4 mm 2 mps 745 mmHg 80%
    08:00 +27°C° 0.4 mm 2 mps 745 mmHg 77%
    09:00 +28°C° 0.4 mm 2 mps 746 mmHg 75%
    10:00 +29°C° 0 mm 2 mps 745 mmHg 69%
    11:00 +30°C° 0 mm 1 mps 745 mmHg 64%
    12:00 +32°C° 0 mm 1 mps 744 mmHg 58%
    13:00 +32°C° 0 mm 1 mps 744 mmHg 55%
    14:00 +33°C° 0 mm 1 mps 743 mmHg 51%
    15:00 +34°C° 0 mm 1 mps 742 mmHg 48%
    16:00 +33°C° 0 mm 1 mps 743 mmHg 51%
    17:00 +32°C° 0 mm 1 mps 743 mmHg 54%
    18:00 +32°C° 0 mm 1 mps 743 mmHg 57%
    19:00 +31°C° 0 mm 1 mps 743 mmHg 60%
    20:00 +30°C° 0 mm 1 mps 744 mmHg 62%
    21:00 +29°C° 0 mm 1 mps 744 mmHg 64%
    22:00 +29°C° 0 mm 2 mps 744 mmHg 67%
    23:00 +28°C° 0 mm 2 mps 744 mmHg 70%

    22 July, Monday

    Time Temperature Precipitation Wind Pressure Humidity
    00:00 +28°C° 0 mm 2 mps 744 mmHg 73%
    01:00 +27°C° 0 mm 2 mps 744 mmHg 75%
    02:00 +27°C° 0 mm 2 mps 743 mmHg 77%
    03:00 +27°C° 0 mm 2 mps 743 mmHg 79%
    04:00 +27°C° 0 mm 2 mps 744 mmHg 80%
    05:00 +26°C° 0 mm 2 mps 744 mmHg 81%
    06:00 +26°C° 0 mm 2 mps 744 mmHg 82%
    07:00 +28°C° 0 mm 3 mps 745 mmHg 76%
    08:00 +29°C° 0 mm 4 mps 745 mmHg 69%
    09:00 +32°C° 0 mm 4 mps 745 mmHg 63%
    10:00 +33°C° 0 mm 4 mps 745 mmHg 59%
    11:00 +35°C° 0 mm 4 mps 744 mmHg 54%
    12:00 +36°C° 0 mm 3 mps 744 mmHg 49%
    13:00 +36°C° 0 mm 3 mps 743 mmHg 47%
    14:00 +37°C° 0 mm 3 mps 742 mmHg 44%
    15:00 +37°C° 0 mm 2 mps 742 mmHg 42%
    16:00 +36°C° 0 mm 2 mps 741 mmHg 46%
    17:00 +35°C° 0 mm 2 mps 741 mmHg 51%
    18:00 +34°C° 0 mm 2 mps 741 mmHg 55%
    19:00 +33°C° 0.4 mm 3 mps 742 mmHg 60%
    20:00 +31°C° 0.4 mm 3 mps 742 mmHg 65%
    21:00 +30°C° 0.4 mm 3 mps 743 mmHg 70%
    22:00 +29°C° 0.3 mm 3 mps 743 mmHg 73%
    23:00 +29°C° 0.3 mm 3 mps 743 mmHg 75%

    23 July, Tuesday

    Time Temperature Precipitation Wind Pressure Humidity
    00:00 +28°C° 0.3 mm 4 mps 743 mmHg 78%
    01:00 +28°C° 0.5 mm 4 mps 743 mmHg 79%
    02:00 +28°C° 0.5 mm 4 mps 743 mmHg 80%
    03:00 +28°C° 0.5 mm 4 mps 742 mmHg 82%
    04:00 +27°C° 11.7 mm 3 mps 743 mmHg 85%
    05:00 +26°C° 11.7 mm 3 mps 743 mmHg 88%
    06:00 +25°C° 11.7 mm 3 mps 744 mmHg 91%
    07:00 +26°C° 0.4 mm 4 mps 744 mmHg 89%
    08:00 +26°C° 0.4 mm 4 mps 744 mmHg 87%
    09:00 +27°C° 0.4 mm 5 mps 744 mmHg 85%
    10:00 +27°C° 0 mm 5 mps 744 mmHg 84%
    11:00 +27°C° 0 mm 5 mps 744 mmHg 83%
    12:00 +27°C° 0 mm 4 mps 744 mmHg 82%
    13:00 +27°C° 0.2 mm 4 mps 744 mmHg 81%
    14:00 +27°C° 0.2 mm 3 mps 743 mmHg 80%
    15:00 +28°C° 0.2 mm 3 mps 743 mmHg 80%
    16:00 +27°C° 0 mm 2 mps 743 mmHg 81%
    17:00 +27°C° 0 mm 2 mps 743 mmHg 82%
    18:00 +27°C° 0 mm 2 mps 743 mmHg 83%
    19:00 +26°C° 0 mm 2 mps 743 mmHg 85%
    20:00 +26°C° 0 mm 2 mps 744 mmHg 87%
    21:00 +26°C° 0 mm 2 mps 744 mmHg 89%
    22:00 +25°C° 0 mm 2 mps 744 mmHg 90%
    23:00 +25°C° 0 mm 2 mps 744 mmHg 91%

    24 July, Wednesday

    Time Temperature Precipitation Wind Pressure Humidity
    00:00 +25°C° 0 mm 2 mps 744 mmHg 92%
    01:00 +25°C° 0 mm 2 mps 744 mmHg 92%
    02:00 +25°C° 0 mm 2 mps 744 mmHg 92%
    03:00 +25°C° 0 mm 2 mps 744 mmHg 92%
    04:00 +25°C° 0 mm 2 mps 744 mmHg 92%
    05:00 +25°C° 0 mm 2 mps 744 mmHg 92%
    06:00 +25°C° 0 mm 2 mps 744 mmHg 92%
    07:00 +26°C° 0 mm 3 mps 745 mmHg 85%
    08:00 +28°C° 0 mm 4 mps 745 mmHg 77%
    09:00 +29°C° 0 mm 5 mps 746 mmHg 70%
    10:00 +32°C° 0 mm 5 mps 745 mmHg 65%
    11:00 +33°C° 0 mm 4 mps 745 mmHg 60%
    12:00 +35°C° 0 mm 4 mps 744 mmHg 54%
    13:00 +35°C° 0.2 mm 4 mps 744 mmHg 54%
    14:00 +35°C° 0.2 mm 4 mps 743 mmHg 54%
    15:00 +35°C° 0.2 mm 3 mps 742 mmHg 54%
    16:00 +34°C° 0.1 mm 3 mps 742 mmHg 59%
    17:00 +33°C° 0.1 mm 3 mps 742 mmHg 64%
    18:00 +31°C° 0.1 mm 3 mps 742 mmHg 69%
    19:00 +30°C° 0.4 mm 3 mps 743 mmHg 73%
    20:00 +29°C° 0.4 mm 3 mps 743 mmHg 77%
    21:00 +28°C° 0.4 mm 3 mps 744 mmHg 81%
    22:00 +27°C° 0.1 mm 3 mps 744 mmHg 82%
    23:00 +27°C° 0.1 mm 3 mps 744 mmHg 83%
    Show more